This is the latest recevied weather packets stored in our database for station/object KQ7A. If no packets are shown the sender has not sent any weather packets the latest 1 day(s).
| Time | Temp. | Humidity | Pressure | Rain* | Wind** | Luminosity | Snow |
|---|---|---|---|---|---|---|---|
| 1778018781 | 16.67° C | 51% | 1014.8 hPa | 0 mm | 1.34 m/s, 355° | 632 W/m² | - |
| 1778018478 | 16.11° C | 56% | 1014.7 hPa | 0 mm | 1.34 m/s, 25° | 678 W/m² | - |
| 1778018176 | 16.67° C | 57% | 1014.6 hPa | 0 mm | 1.79 m/s, 50° | 684 W/m² | - |
| 1778017873 | 16.67° C | 56% | 1015 hPa | 0 mm | 0.89 m/s, 45° | 731 W/m² | - |
| 1778017571 | 16.67° C | 56% | 1015.2 hPa | 0 mm | 0.89 m/s, 53° | 701 W/m² | - |
| 1778017268 | 16.67° C | 55% | 1014.8 hPa | 0 mm | 1.79 m/s, 0° | 702 W/m² | - |
| 1778016966 | 16.11° C | 61% | 1015 hPa | 0 mm | 0.89 m/s, 342° | 700 W/m² | - |
| 1778016662 | 16.11° C | 55% | 1015.2 hPa | 0 mm | 1.79 m/s, 2° | 708 W/m² | - |
| 1778016358 | 16.11° C | 62% | 1015.2 hPa | 0 mm | 1.79 m/s, 74° | 714 W/m² | - |
| 1778016065 | 15.56° C | 60% | 1015.2 hPa | 0 mm | 0.89 m/s, 129° | 711 W/m² | - |
| 1778015753 | 15.56° C | 59% | 1015.3 hPa | 0 mm | 1.34 m/s, 68° | 715 W/m² | - |
| 1778015450 | 15° C | 68% | 1015.5 hPa | 0 mm | 0.89 m/s, 74° | 726 W/m² | - |
| 1778015146 | 14.44° C | 62% | 1015.4 hPa | 0 mm | 1.34 m/s, 67° | 743 W/m² | - |
| 1778014843 | 15.56° C | 62% | 1015.4 hPa | 0 mm | 2.68 m/s, 97° | 366 W/m² | - |
| 1778014541 | 15.56° C | 61% | 1015.3 hPa | 0 mm | 0.45 m/s, 16° | 787 W/m² | - |
| 1778014238 | 15° C | 71% | 1015.4 hPa | 0 mm | 0.45 m/s, 91° | 760 W/m² | - |
| 1778013936 | 15° C | 60% | 1015.4 hPa | 0 mm | 0 m/s | 610 W/m² | - |
| 1778013633 | 14.44° C | 68% | 1015.6 hPa | 0 mm | 1.34 m/s, 12° | 196 W/m² | - |
| 1778013329 | 13.89° C | 68% | 1015.6 hPa | 0 mm | 1.34 m/s, 111° | 790 W/m² | - |
| 1778013027 | 13.89° C | 67% | 1015.9 hPa | 0 mm | 1.34 m/s, 73° | 527 W/m² | - |
| 1778012722 | 13.89° C | 67% | 1015.6 hPa | 0 mm | 1.34 m/s, 5° | 818 W/m² | - |
| 1778012418 | 13.89° C | 72% | 1015.5 hPa | 0 mm | 1.79 m/s, 345° | 727 W/m² | - |
| 1778012116 | 12.78° C | 72% | 1015.8 hPa | 0 mm | 1.34 m/s, 88° | 986 W/m² | - |
| 1778011813 | 13.33° C | 75% | 1015.9 hPa | 0 mm | 0.45 m/s, 9° | 553 W/m² | - |
| 1778011511 | 13.33° C | 72% | 1015.9 hPa | 0 mm | 0.89 m/s, 20° | 553 W/m² | - |
* Rain latest hour (hover to see other rain measurements)
** Current wind speed in m/s (hover to see current wind gust speed)